Wetterdaten: Dienstag, 29.05.2012
Datum Zeit Temperatur Luftfeuchte Regen Wind Richtung Richtung Taupunkt Windchill Windben
29.05.2012 00:00 12,0 C 71 % 0,0 l/m 1,4 km/h (1 Bft) N 360 6,9 C 12,0 C 2,7 km/h (1 Bft)
29.05.2012 00:05 11,9 C 71 % 0,0 l/m 0,6 km/h (0 Bft) N-NW 337 6,8 C 11,9 C 0,0 km/h (0 Bft)
29.05.2012 00:10 12,1 C 72 % 0,0 l/m 1,4 km/h (1 Bft) N 360 7,2 C 12,0 C 4,0 km/h (1 Bft)
29.05.2012 00:15 12,2 C 73 % 0,0 l/m 1,4 km/h (1 Bft) N-NW 337 7,5 C 12,2 C 1,9 km/h (1 Bft)
29.05.2012 00:20 12,3 C 72 % 0,0 l/m 1,4 km/h (1 Bft) N 360 7,4 C 12,4 C 4,8 km/h (1 Bft)
29.05.2012 00:25 12,2 C 71 % 0,0 l/m 1,3 km/h (1 Bft) NO 45 7,1 C 12,5 C 2,1 km/h (1 Bft)
29.05.2012 00:30 12,3 C 71 % 0,0 l/m 0,8 km/h (0 Bft) NO 45 7,2 C 12,5 C 0,0 km/h (0 Bft)
29.05.2012 00:35 12,2 C 72 % 0,0 l/m 0,8 km/h (0 Bft) N-NO 22 7,3 C 12,4 C 0,0 km/h (0 Bft)
29.05.2012 00:40 11,9 C 73 % 0,0 l/m 0,5 km/h (0 Bft) SO 135 7,2 C 12,3 C 0,0 km/h (0 Bft)
29.05.2012 00:45 11,9 C 73 % 0,0 l/m 0,6 km/h (0 Bft) N-NW 337 7,2 C 12,1 C 1,8 km/h (1 Bft)
29.05.2012 00:50 11,9 C 73 % 0,0 l/m 0,8 km/h (0 Bft) N-NO 22 7,2 C 12,1 C 1,8 km/h (1 Bft)
29.05.2012 00:55 11,9 C 72 % 0,0 l/m 0,6 km/h (0 Bft) N 360 7,0 C 12,0 C 0,0 km/h (0 Bft)
29.05.2012 01:00 12,2 C 73 % 0,0 l/m 0,8 km/h (0 Bft) SO 135 7,5 C 12,1 C 0,0 km/h (0 Bft)
29.05.2012 01:05 12,3 C 72 % 0,0 l/m 1,3 km/h (1 Bft) N-NW 337 7,4 C 12,3 C 2,7 km/h (1 Bft)
29.05.2012 01:10 12,5 C 71 % 0,0 l/m 0,8 km/h (0 Bft) SW 225 7,4 C 12,5 C 4,0 km/h (1 Bft)
29.05.2012 01:15 12,5 C 71 % 0,0 l/m 0,8 km/h (0 Bft) O-SO 112 7,4 C 12,6 C 3,7 km/h (1 Bft)
29.05.2012 01:20 12,8 C 71 % 0,0 l/m 1,8 km/h (1 Bft) N 360 7,7 C 13,0 C 5,6 km/h (1 Bft)
29.05.2012 01:25 12,9 C 70 % 0,0 l/m 2,4 km/h (1 Bft) S 180 7,6 C 13,1 C 3,7 km/h (1 Bft)
29.05.2012 01:30 11,9 C 76 % 0,0 l/m 2,6 km/h (1 Bft) NO 45 7,8 C 12,6 C 1,9 km/h (1 Bft)
29.05.2012 01:35 11,1 C 82 % 0,0 l/m 2,3 km/h (1 Bft) N 360 8,1 C 11,7 C 2,1 km/h (1 Bft)
29.05.2012 01:40 10,7 C 88 % 0,0 l/m 2,1 km/h (1 Bft) N 360 8,8 C 10,9 C 6,1 km/h (2 Bft)
29.05.2012 01:45 10,8 C 89 % 0,7 l/m 2,4 km/h (1 Bft) N-NW 337 9,1 C 10,7 C 4,2 km/h (1 Bft)
29.05.2012 01:50 10,8 C 90 % 0,0 l/m 2,9 km/h (1 Bft) N 360 9,2 C 10,7 C 4,5 km/h (1 Bft)
29.05.2012 01:55 10,7 C 90 % 0,0 l/m 2,4 km/h (1 Bft) N-NO 22 9,1 C 10,7 C 3,7 km/h (1 Bft)
29.05.2012 02:00 10,6 C 90 % 0,0 l/m 1,4 km/h (1 Bft) N-NO 22 9,0 C 10,7 C 1,9 km/h (1 Bft)
29.05.2012 02:05 10,5 C 91 % 0,0 l/m 1,8 km/h (1 Bft) N 360 9,1 C 10,5 C 4,3 km/h (1 Bft)
29.05.2012 02:10 10,4 C 91 % 0,0 l/m 1,9 km/h (1 Bft) N 360 9,0 C 10,4 C 2,1 km/h (1 Bft)
29.05.2012 02:15 10,3 C 91 % 0,0 l/m 2,1 km/h (1 Bft) N 360 8,9 C 10,4 C 2,3 km/h (1 Bft)
29.05.2012 02:20 10,3 C 92 % 0,0 l/m 1,9 km/h (1 Bft) N-NW 337 9,1 C 10,4 C 3,5 km/h (1 Bft)
29.05.2012 02:25 10,3 C 92 % 0,0 l/m 2,1 km/h (1 Bft) N 360 9,1 C 10,4 C 3,2 km/h (1 Bft)
29.05.2012 02:30 10,4 C 92 % 0,0 l/m 1,9 km/h (1 Bft) NW 315 9,2 C 10,4 C 2,7 km/h (1 Bft)
29.05.2012 02:35 10,5 C 92 % 0,0 l/m 1,8 km/h (1 Bft) N 360 9,3 C 10,7 C 6,8 km/h (2 Bft)
29.05.2012 02:40 10,5 C 92 % 0,0 l/m 1,3 km/h (1 Bft) N 360 9,3 C 10,8 C 2,1 km/h (1 Bft)
29.05.2012 02:45 10,5 C 92 % 0,0 l/m 1,6 km/h (1 Bft) S-SO 157 9,3 C 10,7 C 3,7 km/h (1 Bft)
29.05.2012 02:50 10,5 C 92 % 0,0 l/m 1,9 km/h (1 Bft) NO 45 9,3 C 10,5 C 0,0 km/h (0 Bft)
29.05.2012 02:55 10,4 C 92 % 0,0 l/m 1,8 km/h (1 Bft) N-NW 337 9,2 C 10,4 C 0,0 km/h (0 Bft)
29.05.2012 03:00 10,3 C 93 % 0,0 l/m 1,8 km/h (1 Bft) W-NW 292 9,2 C 10,4 C 1,9 km/h (1 Bft)
29.05.2012 03:05 10,2 C 93 % 0,0 l/m 1,6 km/h (1 Bft) W-NW 292 9,1 C 10,3 C 0,0 km/h (0 Bft)
29.05.2012 03:10 10,0 C 92 % 0,0 l/m 1,0 km/h (0 Bft) N 360 8,8 C 10,2 C 3,9 km/h (1 Bft)
29.05.2012 03:15 10,3 C 92 % 0,0 l/m 1,8 km/h (1 Bft) N 360 9,1 C 10,2 C 5,3 km/h (1 Bft)
29.05.2012 03:20 10,4 C 93 % 0,0 l/m 2,6 km/h (1 Bft) N 360 9,3 C 10,5 C 7,6 km/h (2 Bft)
29.05.2012 03:25 10,5 C 93 % 0,0 l/m 1,8 km/h (1 Bft) N 360 9,4 C 10,6 C 3,1 km/h (1 Bft)
29.05.2012 03:30 10,6 C 93 % 0,0 l/m 1,1 km/h (1 Bft) N 360 9,5 C 10,7 C 6,4 km/h (2 Bft)
29.05.2012 03:35 10,7 C 93 % 0,0 l/m 1,6 km/h (1 Bft) N-NW 337 9,6 C 10,9 C 3,7 km/h (1 Bft)
29.05.2012 03:40 10,7 C 93 % 0,0 l/m 2,1 km/h (1 Bft) N-NW 337 9,6 C 11,0 C 3,4 km/h (1 Bft)
29.05.2012 03:45 10,7 C 93 % 0,0 l/m 1,1 km/h (1 Bft) S 180 9,6 C 11,1 C 0,0 km/h (0 Bft)
29.05.2012 03:50 10,7 C 93 % 0,0 l/m 0,8 km/h (0 Bft) N 360 9,6 C 11,0 C 3,7 km/h (1 Bft)
29.05.2012 03:55 10,7 C 93 % 0,0 l/m 1,1 km/h (1 Bft) O 90 9,6 C 11,0 C 0,0 km/h (0 Bft)
29.05.2012 04:00 10,8 C 92 % 0,0 l/m 1,3 km/h (1 Bft) O-SO 112 9,6 C 11,1 C 0,0 km/h (0 Bft)
29.05.2012 04:05 10,7 C 92 % 0,0 l/m 0,6 km/h (0 Bft) S-SO 157 9,5 C 11,1 C 0,0 km/h (0 Bft)
29.05.2012 04:10 10,7 C 92 % 0,0 l/m 0,5 km/h (0 Bft) N 360 9,5 C 11,0 C 0,0 km/h (0 Bft)
29.05.2012 04:15 10,8 C 92 % 0,0 l/m 0,6 km/h (0 Bft) W-NW 292 9,6 C 11,0 C 0,0 km/h (0 Bft)
29.05.2012 04:20 10,7 C 92 % 0,0 l/m 1,0 km/h (0 Bft) NO 45 9,5 C 11,0 C 0,0 km/h (0 Bft)
29.05.2012 04:25 10,5 C 92 % 0,0 l/m 1,3 km/h (1 Bft) O-SO 112 9,3 C 11,0 C 3,9 km/h (1 Bft)
29.05.2012 04:30 10,7 C 91 % 0,0 l/m 2,1 km/h (1 Bft) N-NO 22 9,3 C 11,1 C 3,9 km/h (1 Bft)
29.05.2012 04:35 10,6 C 91 % 0,0 l/m 2,7 km/h (1 Bft) N-NW 337 9,2 C 11,0 C 3,5 km/h (1 Bft)
29.05.2012 04:40 10,5 C 90 % 0,0 l/m 1,6 km/h (1 Bft) N-NO 22 8,9 C 10,9 C 0,0 km/h (0 Bft)
29.05.2012 04:45 10,5 C 90 % 0,0 l/m 0,5 km/h (0 Bft) O 90 8,9 C 10,8 C 0,0 km/h (0 Bft)
29.05.2012 04:50 10,6 C 90 % 0,0 l/m 0,0 km/h (0 Bft) W 270 9,0 C 10,8 C 0,0 km/h (0 Bft)
29.05.2012 04:55 10,6 C 90 % 0,0 l/m 0,0 km/h (0 Bft) W 270 9,0 C 10,8 C 0,0 km/h (0 Bft)
29.05.2012 05:00 10,5 C 90 % 0,0 l/m 0,0 km/h (0 Bft) N 360 8,9 C 10,7 C 0,0 km/h (0 Bft)
29.05.2012 05:05 10,6 C 91 % 0,0 l/m 0,0 km/h (0 Bft) O-NO 67 9,2 C 10,7 C 0,0 km/h (0 Bft)
29.05.2012 05:10 10,7 C 91 % 0,0 l/m 0,0 km/h (0 Bft) W-NW 292 9,3 C 10,7 C 0,0 km/h (0 Bft)
29.05.2012 05:15 10,7 C 91 % 0,0 l/m 0,6 km/h (0 Bft) W-NW 292 9,3 C 10,7 C 4,8 km/h (1 Bft)
29.05.2012 05:20 10,8 C 91 % 0,0 l/m 1,4 km/h (1 Bft) N-NO 22 9,4 C 10,7 C 2,3 km/h (1 Bft)
29.05.2012 05:25 10,9 C 91 % 0,0 l/m 2,3 km/h (1 Bft) N-NO 22 9,5 C 10,8 C 3,1 km/h (1 Bft)
29.05.2012 05:30 11,0 C 91 % 0,0 l/m 2,7 km/h (1 Bft) N-NO 22 9,6 C 10,9 C 2,7 km/h (1 Bft)
29.05.2012 05:35 10,9 C 91 % 0,0 l/m 2,6 km/h (1 Bft) SO 135 9,5 C 11,1 C 3,5 km/h (1 Bft)
29.05.2012 05:40 10,9 C 91 % 0,0 l/m 1,9 km/h (1 Bft) S-SO 157 9,5 C 11,1 C 0,0 km/h (0 Bft)
29.05.2012 05:45 11,0 C 90 % 0,0 l/m 1,1 km/h (1 Bft) O-SO 112 9,4 C 11,1 C 0,0 km/h (0 Bft)
29.05.2012 05:50 11,1 C 90 % 0,0 l/m 0,6 km/h (0 Bft) W 270 9,5 C 11,1 C 0,0 km/h (0 Bft)
29.05.2012 05:55 11,1 C 90 % 0,0 l/m 0,8 km/h (0 Bft) N 360 9,5 C 11,1 C 3,2 km/h (1 Bft)
29.05.2012 06:00 11,2 C 89 % 0,0 l/m 1,0 km/h (0 Bft) N 360 9,5 C 11,3 C 3,5 km/h (1 Bft)
29.05.2012 06:05 11,3 C 89 % 0,0 l/m 0,8 km/h (0 Bft) N 360 9,6 C 11,4 C 2,3 km/h (1 Bft)
29.05.2012 06:10 11,3 C 89 % 0,0 l/m 1,8 km/h (1 Bft) W-SW 247 9,6 C 11,6 C 5,5 km/h (1 Bft)
29.05.2012 06:15 11,5 C 88 % 0,0 l/m 3,1 km/h (1 Bft) W-NW 292 9,6 C 11,7 C 6,1 km/h (2 Bft)
29.05.2012 06:20 11,2 C 88 % 0,0 l/m 5,5 km/h (1 Bft) N-NO 22 9,3 C 11,2 C 10,8 km/h (2 Bft)
29.05.2012 06:25 11,1 C 89 % 0,0 l/m 6,6 km/h (2 Bft) W-NW 292 9,4 C 10,5 C 7,9 km/h (2 Bft)
29.05.2012 06:30 11,1 C 89 % 0,0 l/m 6,4 km/h (2 Bft) NO 45 9,4 C 10,6 C 10,9 km/h (2 Bft)
29.05.2012 06:35 10,9 C 89 % 1,4 l/m 4,2 km/h (1 Bft) N 360 9,2 C 10,9 C 4,8 km/h (1 Bft)
29.05.2012 06:40 10,8 C 91 % 0,0 l/m 2,3 km/h (1 Bft) N-NO 22 9,4 C 10,8 C 4,8 km/h (1 Bft)
29.05.2012 06:45 10,8 C 92 % 0,0 l/m 2,1 km/h (1 Bft) W-NW 292 9,6 C 10,8 C 0,0 km/h (0 Bft)
29.05.2012 06:50 10,8 C 92 % 0,7 l/m 2,4 km/h (1 Bft) N 360 9,6 C 10,7 C 3,4 km/h (1 Bft)
29.05.2012 06:55 10,8 C 92 % 0,0 l/m 2,3 km/h (1 Bft) NO 45 9,6 C 10,7 C 0,0 km/h (0 Bft)
29.05.2012 07:00 10,8 C 93 % 0,7 l/m 2,9 km/h (1 Bft) NO 45 9,7 C 10,7 C 5,8 km/h (2 Bft)
29.05.2012 07:05 10,8 C 93 % 0,7 l/m 3,5 km/h (1 Bft) N 360 9,7 C 10,7 C 2,3 km/h (1 Bft)
29.05.2012 07:10 10,8 C 93 % 0,0 l/m 2,9 km/h (1 Bft) O-SO 112 9,7 C 10,7 C 3,9 km/h (1 Bft)
29.05.2012 07:15 10,8 C 93 % 0,0 l/m 1,8 km/h (1 Bft) S 180 9,7 C 10,8 C 2,9 km/h (1 Bft)
29.05.2012 07:20 10,9 C 93 % 0,0 l/m 1,8 km/h (1 Bft) O 90 9,8 C 10,9 C 0,0 km/h (0 Bft)
29.05.2012 07:25 10,9 C 93 % 0,7 l/m 2,1 km/h (1 Bft) S-SO 157 9,8 C 10,9 C 2,6 km/h (1 Bft)
29.05.2012 07:30 11,0 C 93 % 0,0 l/m 1,8 km/h (1 Bft) N 360 9,9 C 11,0 C 6,0 km/h (2 Bft)
29.05.2012 07:35 11,1 C 93 % 0,0 l/m 1,4 km/h (1 Bft) N 360 10,0 C 11,1 C 0,0 km/h (0 Bft)
29.05.2012 07:40 11,2 C 93 % 0,0 l/m 2,4 km/h (1 Bft) SO 135 10,1 C 11,3 C 3,5 km/h (1 Bft)
29.05.2012 07:45 11,4 C 93 % 0,0 l/m 1,6 km/h (1 Bft) N-NW 337 10,3 C 11,6 C 0,0 km/h (0 Bft)
29.05.2012 07:50 11,6 C 93 % 0,0 l/m 1,0 km/h (0 Bft) S-SW 202 10,5 C 11,9 C 0,0 km/h (0 Bft)
29.05.2012 07:55 11,8 C 93 % 0,0 l/m 0,6 km/h (0 Bft) N 360 10,7 C 12,3 C 0,0 km/h (0 Bft)
29.05.2012 08:00 12,5 C 93 % 0,0 l/m 0,6 km/h (0 Bft) NO 45 11,4 C 12,9 C 1,6 km/h (1 Bft)
29.05.2012 08:05 12,5 C 93 % 0,0 l/m 0,8 km/h (0 Bft) W-NW 292 11,4 C 13,3 C 0,0 km/h (0 Bft)
29.05.2012 08:10 12,6 C 93 % 0,0 l/m 1,0 km/h (0 Bft) N 360 11,5 C 13,7 C 2,4 km/h (1 Bft)
29.05.2012 08:15 12,6 C 93 % 0,0 l/m 1,3 km/h (1 Bft) N-NO 22 11,5 C 13,9 C 0,0 km/h (0 Bft)
29.05.2012 08:20 12,7 C 93 % 0,0 l/m 1,3 km/h (1 Bft) N 360 11,6 C 14,2 C 2,9 km/h (1 Bft)
29.05.2012 08:25 13,0 C 91 % 0,0 l/m 1,0 km/h (0 Bft) O-SO 112 11,6 C 14,5 C 0,0 km/h (0 Bft)
29.05.2012 08:30 14,4 C 91 % 0,0 l/m 1,1 km/h (1 Bft) N-NW 337 12,9 C 15,0 C 3,1 km/h (1 Bft)
29.05.2012 08:35 14,2 C 91 % 0,0 l/m 1,9 km/h (1 Bft) S-SO 157 12,8 C 15,9 C 4,5 km/h (1 Bft)
29.05.2012 08:40 13,7 C 90 % 0,0 l/m 2,9 km/h (1 Bft) SO 135 12,1 C 15,7 C 1,8 km/h (1 Bft)
29.05.2012 08:45 13,8 C 90 % 0,0 l/m 2,1 km/h (1 Bft) W-NW 292 12,2 C 15,6 C 0,0 km/h (0 Bft)
29.05.2012 08:50 15,0 C 89 % 0,0 l/m 1,6 km/h (1 Bft) S-SO 157 13,2 C 16,2 C 2,3 km/h (1 Bft)
29.05.2012 08:55 16,6 C 87 % 0,0 l/m 1,8 km/h (1 Bft) N-NO 22 14,4 C 17,6 C 0,0 km/h (0 Bft)
29.05.2012 09:00 15,9 C 87 % 0,0 l/m 1,1 km/h (1 Bft) N-NO 22 13,7 C 19,3 C 0,0 km/h (0 Bft)
29.05.2012 09:05 15,4 C 86 % 0,0 l/m 0,8 km/h (0 Bft) O 90 13,1 C 19,2 C 2,4 km/h (1 Bft)
29.05.2012 09:10 14,8 C 86 % 0,0 l/m 1,1 km/h (1 Bft) N-NW 337 12,5 C 18,5 C 0,0 km/h (0 Bft)
29.05.2012 09:15 16,9 C 85 % 0,0 l/m 1,1 km/h (1 Bft) O 90 14,4 C 18,6 C 0,0 km/h (0 Bft)
29.05.2012 09:20 17,5 C 83 % 0,0 l/m 0,8 km/h (0 Bft) W-SW 247 14,6 C 20,7 C 1,6 km/h (1 Bft)
29.05.2012 09:25 17,5 C 83 % 0,0 l/m 0,8 km/h (0 Bft) S-SO 157 14,6 C 21,1 C 2,9 km/h (1 Bft)
29.05.2012 09:30 17,2 C 78 % 0,0 l/m 3,2 km/h (1 Bft) O-SO 112 13,3 C 21,0 C 10,0 km/h (2 Bft)
29.05.2012 09:35 16,6 C 77 % 0,0 l/m 4,7 km/h (1 Bft) SO 135 12,5 C 20,0 C 4,3 km/h (1 Bft)
29.05.2012 09:40 17,4 C 78 % 0,0 l/m 4,3 km/h (1 Bft) S-SW 202 13,5 C 20,1 C 3,5 km/h (1 Bft)
29.05.2012 09:45 19,2 C 69 % 0,0 l/m 4,7 km/h (1 Bft) O 90 13,4 C 21,0 C 10,9 km/h (2 Bft)
29.05.2012 09:50 17,9 C 73 % 0,0 l/m 5,6 km/h (1 Bft) O 90 13,0 C 21,2 C 5,3 km/h (1 Bft)
29.05.2012 09:55 16,4 C 75 % 0,0 l/m 5,8 km/h (2 Bft) O-SO 112 12,0 C 20,2 C 3,7 km/h (1 Bft)
29.05.2012 10:00 16,0 C 77 % 0,0 l/m 4,5 km/h (1 Bft) N 360 12,0 C 18,8 C 14,8 km/h (3 Bft)
29.05.2012 10:05 18,0 C 75 % 0,0 l/m 3,7 km/h (1 Bft) W-SW 247 13,5 C 19,1 C 12,2 km/h (2 Bft)
29.05.2012 10:10 20,1 C 69 % 0,0 l/m 4,8 km/h (1 Bft) O 90 14,2 C 21,0 C 9,8 km/h (2 Bft)
29.05.2012 10:15 20,2 C 65 % 0,0 l/m 6,0 km/h (2 Bft) W-NW 292 13,4 C 21,9 C 5,3 km/h (1 Bft)
29.05.2012 10:20 19,5 C 67 % 0,0 l/m 6,9 km/h (2 Bft) SO 135 13,2 C 22,0 C 17,5 km/h (3 Bft)
29.05.2012 10:25 18,5 C 73 % 0,0 l/m 6,8 km/h (2 Bft) O-SO 112 13,6 C 21,6 C 6,8 km/h (2 Bft)
29.05.2012 10:30 18,1 C 70 % 0,0 l/m 6,0 km/h (2 Bft) SO 135 12,5 C 20,6 C 5,0 km/h (1 Bft)
29.05.2012 10:35 19,5 C 68 % 0,0 l/m 5,3 km/h (1 Bft) O 90 13,4 C 21,4 C 9,0 km/h (2 Bft)
29.05.2012 10:40 19,9 C 67 % 0,0 l/m 6,0 km/h (2 Bft) SO 135 13,6 C 22,0 C 5,1 km/h (1 Bft)
29.05.2012 10:45 19,7 C 65 % 0,0 l/m 7,1 km/h (2 Bft) SO 135 12,9 C 22,1 C 9,2 km/h (2 Bft)
29.05.2012 10:50 20,7 C 62 % 0,0 l/m 7,4 km/h (2 Bft) S-SO 157 13,2 C 22,8 C 18,5 km/h (3 Bft)
29.05.2012 10:55 20,7 C 58 % 0,0 l/m 8,4 km/h (2 Bft) S 180 12,1 C 22,7 C 16,1 km/h (3 Bft)
29.05.2012 11:00 19,5 C 63 % 0,0 l/m 10,3 km/h (2 Bft) SO 135 12,3 C 21,4 C 19,2 km/h (3 Bft)
29.05.2012 11:05 20,5 C 65 % 0,0 l/m 8,9 km/h (2 Bft) S 180 13,7 C 21,7 C 3,7 km/h (1 Bft)
29.05.2012 11:10 18,8 C 64 % 0,0 l/m 7,4 km/h (2 Bft) O-SO 112 11,8 C 21,4 C 10,1 km/h (2 Bft)
29.05.2012 11:15 19,9 C 67 % 0,0 l/m 7,4 km/h (2 Bft) NO 45 13,6 C 21,3 C 6,4 km/h (2 Bft)
29.05.2012 11:20 19,7 C 59 % 0,0 l/m 8,5 km/h (2 Bft) SO 135 11,5 C 21,5 C 19,5 km/h (3 Bft)
29.05.2012 11:25 19,3 C 65 % 0,0 l/m 8,4 km/h (2 Bft) SO 135 12,6 C 21,1 C 16,1 km/h (3 Bft)
29.05.2012 11:30 17,8 C 60 % 0,0 l/m 8,2 km/h (2 Bft) SO 135 9,9 C 20,1 C 20,6 km/h (4 Bft)
29.05.2012 11:35 18,4 C 66 % 0,0 l/m 8,5 km/h (2 Bft) SO 135 11,9 C 19,5 C 6,0 km/h (2 Bft)
29.05.2012 11:40 20,1 C 62 % 0,0 l/m 7,1 km/h (2 Bft) N 360 12,6 C 20,9 C 7,2 km/h (2 Bft)
29.05.2012 11:45 20,4 C 60 % 0,0 l/m 6,3 km/h (2 Bft) S 180 12,4 C 21,9 C 13,2 km/h (3 Bft)
29.05.2012 11:50 20,6 C 58 % 0,0 l/m 7,4 km/h (2 Bft) S-SO 157 12,0 C 22,1 C 10,3 km/h (2 Bft)
29.05.2012 11:55 20,8 C 58 % 0,0 l/m 7,1 km/h (2 Bft) N 360 12,2 C 22,3 C 5,0 km/h (1 Bft)
29.05.2012 12:00 20,9 C 54 % 0,0 l/m 6,9 km/h (2 Bft) O-SO 112 11,2 C 22,7 C 19,6 km/h (3 Bft)
29.05.2012 12:05 20,4 C 53 % 0,0 l/m 7,9 km/h (2 Bft) S-SO 157 10,5 C 21,6 C 6,8 km/h (2 Bft)
29.05.2012 12:10 22,9 C 51 % 0,0 l/m 6,8 km/h (2 Bft) S-SO 157 12,2 C 23,2 C 9,3 km/h (2 Bft)
29.05.2012 12:15 21,4 C 49 % 0,0 l/m 6,4 km/h (2 Bft) S 180 10,2 C 23,2 C 6,4 km/h (2 Bft)
29.05.2012 12:20 23,1 C 46 % 0,0 l/m 8,9 km/h (2 Bft) O 90 10,8 C 22,5 C 24,1 km/h (4 Bft)
29.05.2012 12:25 22,5 C 45 % 0,0 l/m 10,1 km/h (2 Bft) S 180 10,0 C 22,2 C 16,7 km/h (3 Bft)
29.05.2012 12:30 23,0 C 46 % 0,0 l/m 10,8 km/h (2 Bft) S 180 10,7 C 21,6 C 10,5 km/h (2 Bft)
29.05.2012 12:35 22,8 C 45 % 0,0 l/m 10,3 km/h (2 Bft) S 180 10,2 C 22,2 C 14,0 km/h (3 Bft)
29.05.2012 12:40 23,0 C 44 % 0,0 l/m 9,3 km/h (2 Bft) SO 135 10,1 C 22,1 C 12,6 km/h (3 Bft)
29.05.2012 12:45 21,9 C 47 % 0,0 l/m 9,8 km/h (2 Bft) SO 135 10,1 C 22,0 C 10,6 km/h (2 Bft)
29.05.2012 12:50 21,7 C 49 % 0,0 l/m 8,0 km/h (2 Bft) SO 135 10,5 C 22,1 C 10,1 km/h (2 Bft)
29.05.2012 12:55 21,3 C 49 % 0,0 l/m 6,6 km/h (2 Bft) SO 135 10,1 C 22,2 C 6,8 km/h (2 Bft)
29.05.2012 13:00 20,5 C 49 % 0,0 l/m 7,7 km/h (2 Bft) NW 315 9,4 C 21,0 C 10,5 km/h (2 Bft)
29.05.2012 13:05 20,4 C 49 % 0,0 l/m 8,4 km/h (2 Bft) SO 135 9,3 C 20,5 C 14,6 km/h (3 Bft)
29.05.2012 13:10 19,5 C 54 % 0,0 l/m 8,4 km/h (2 Bft) SO 135 9,9 C 19,6 C 16,1 km/h (3 Bft)
29.05.2012 13:16 17,3 C 65 % 0,0 l/m 8,9 km/h (2 Bft) S-SO 157 10,7 C 18,2 C 15,1 km/h (3 Bft)
29.05.2012 13:20 15,6 C 74 % 1,4 l/m 8,5 km/h (2 Bft) SO 135 11,0 C 14,7 C 7,4 km/h (2 Bft)
29.05.2012 13:25 15,5 C 76 % 0,7 l/m 6,9 km/h (2 Bft) SO 135 11,3 C 14,7 C 5,5 km/h (1 Bft)
29.05.2012 13:30 14,5 C 81 % 0,0 l/m 3,9 km/h (1 Bft) N 360 11,3 C 14,9 C 3,5 km/h (1 Bft)
29.05.2012 13:35 14,2 C 83 % 0,0 l/m 1,9 km/h (1 Bft) N-NO 22 11,4 C 14,6 C 0,0 km/h (0 Bft)
29.05.2012 13:40 14,8 C 85 % 0,0 l/m 1,3 km/h (1 Bft) O-SO 112 12,3 C 14,8 C 6,1 km/h (2 Bft)
29.05.2012 13:45 15,1 C 83 % 0,0 l/m 4,3 km/h (1 Bft) W-NW 292 12,2 C 15,5 C 4,0 km/h (1 Bft)
29.05.2012 13:50 17,2 C 81 % 0,0 l/m 5,6 km/h (1 Bft) O 90 13,9 C 16,5 C 1,9 km/h (1 Bft)
29.05.2012 13:55 17,8 C 78 % 0,0 l/m 5,0 km/h (1 Bft) SO 135 13,9 C 18,1 C 9,0 km/h (2 Bft)
29.05.2012 14:00 18,1 C 69 % 0,0 l/m 6,9 km/h (2 Bft) O-SO 112 12,3 C 19,3 C 10,5 km/h (2 Bft)
29.05.2012 14:05 18,5 C 71 % 0,0 l/m 6,0 km/h (2 Bft) SO 135 13,1 C 20,0 C 7,6 km/h (2 Bft)
29.05.2012 14:10 18,8 C 68 % 0,0 l/m 5,6 km/h (1 Bft) S 180 12,8 C 20,5 C 7,2 km/h (2 Bft)
29.05.2012 14:15 20,0 C 64 % 0,0 l/m 5,0 km/h (1 Bft) SO 135 13,0 C 21,3 C 4,8 km/h (1 Bft)
29.05.2012 14:20 19,3 C 65 % 0,0 l/m 5,5 km/h (1 Bft) SO 135 12,6 C 21,4 C 9,5 km/h (2 Bft)
29.05.2012 14:25 18,8 C 67 % 0,0 l/m 5,8 km/h (2 Bft) O-SO 112 12,5 C 21,3 C 5,3 km/h (1 Bft)
29.05.2012 14:30 18,8 C 65 % 0,0 l/m 5,6 km/h (1 Bft) O-SO 112 12,1 C 20,8 C 3,9 km/h (1 Bft)
29.05.2012 14:35 19,3 C 63 % 0,0 l/m 5,8 km/h (2 Bft) O-NO 67 12,1 C 20,6 C 9,5 km/h (2 Bft)
29.05.2012 14:40 18,6 C 61 % 0,0 l/m 7,6 km/h (2 Bft) S-SO 157 10,9 C 19,8 C 11,3 km/h (2 Bft)
29.05.2012 14:45 19,4 C 61 % 0,0 l/m 7,6 km/h (2 Bft) S-SW 202 11,7 C 19,6 C 11,3 km/h (2 Bft)
29.05.2012 14:50 18,5 C 60 % 0,0 l/m 9,5 km/h (2 Bft) SO 135 10,6 C 19,0 C 11,7 km/h (2 Bft)
29.05.2012 14:55 17,6 C 60 % 0,0 l/m 11,3 km/h (2 Bft) SO 135 9,7 C 17,4 C 12,2 km/h (2 Bft)
29.05.2012 15:00 16,4 C 62 % 0,0 l/m 10,5 km/h (2 Bft) SO 135 9,1 C 15,9 C 12,7 km/h (3 Bft)
29.05.2012 15:05 15,9 C 65 % 0,0 l/m 10,5 km/h (2 Bft) S-SO 157 9,3 C 14,7 C 19,2 km/h (3 Bft)
29.05.2012 15:10 14,9 C 71 % 0,0 l/m 10,5 km/h (2 Bft) S 180 9,7 C 12,2 C 7,2 km/h (2 Bft)
29.05.2012 15:15 14,8 C 73 % 0,0 l/m 8,5 km/h (2 Bft) SO 135 10,0 C 12,7 C 4,3 km/h (1 Bft)
29.05.2012 15:20 14,6 C 76 % 0,0 l/m 4,3 km/h (1 Bft) SO 135 10,4 C 13,9 C 1,9 km/h (1 Bft)
29.05.2012 15:25 14,0 C 76 % 0,0 l/m 3,2 km/h (1 Bft) S-SO 157 9,8 C 13,6 C 4,5 km/h (1 Bft)
29.05.2012 15:30 13,9 C 80 % 0,0 l/m 2,1 km/h (1 Bft) N-NO 22 10,5 C 13,6 C 1,6 km/h (1 Bft)
29.05.2012 15:35 14,2 C 80 % 0,0 l/m 1,8 km/h (1 Bft) O-SO 112 10,8 C 13,8 C 3,9 km/h (1 Bft)
29.05.2012 15:40 14,9 C 79 % 0,0 l/m 3,1 km/h (1 Bft) NO 45 11,3 C 14,4 C 7,6 km/h (2 Bft)
29.05.2012 15:45 15,3 C 77 % 0,0 l/m 4,3 km/h (1 Bft) O-SO 112 11,3 C 14,8 C 7,1 km/h (2 Bft)
29.05.2012 15:50 16,3 C 75 % 0,0 l/m 3,4 km/h (1 Bft) NO 45 11,9 C 15,7 C 0,0 km/h (0 Bft)
29.05.2012 15:55 16,7 C 73 % 0,0 l/m 3,1 km/h (1 Bft) O-SO 112 11,8 C 16,8 C 8,7 km/h (2 Bft)
29.05.2012 16:00 17,6 C 70 % 0,0 l/m 3,1 km/h (1 Bft) O-SO 112 12,1 C 17,8 C 5,1 km/h (1 Bft)
29.05.2012 16:05 17,8 C 69 % 0,0 l/m 3,7 km/h (1 Bft) O-SO 112 12,0 C 18,4 C 6,6 km/h (2 Bft)
29.05.2012 16:10 18,6 C 63 % 0,0 l/m 4,8 km/h (1 Bft) S 180 11,4 C 19,1 C 7,7 km/h (2 Bft)
29.05.2012 16:15 18,6 C 60 % 0,0 l/m 5,5 km/h (1 Bft) S 180 10,7 C 19,7 C 5,8 km/h (2 Bft)
29.05.2012 16:20 18,5 C 59 % 0,0 l/m 6,1 km/h (2 Bft) S 180 10,3 C 19,7 C 7,2 km/h (2 Bft)
29.05.2012 16:25 18,9 C 59 % 0,0 l/m 5,5 km/h (1 Bft) O-SO 112 10,7 C 20,2 C 8,5 km/h (2 Bft)
29.05.2012 16:30 19,1 C 59 % 0,0 l/m 4,0 km/h (1 Bft) O 90 10,9 C 21,0 C 7,1 km/h (2 Bft)
29.05.2012 16:35 19,2 C 58 % 0,0 l/m 3,4 km/h (1 Bft) SO 135 10,7 C 21,6 C 5,3 km/h (1 Bft)
29.05.2012 16:40 19,2 C 56 % 0,0 l/m 4,3 km/h (1 Bft) O-SO 112 10,2 C 22,0 C 8,2 km/h (2 Bft)
29.05.2012 16:45 19,3 C 55 % 0,0 l/m 5,0 km/h (1 Bft) O-SO 112 10,0 C 22,0 C 6,6 km/h (2 Bft)
29.05.2012 16:50 19,1 C 55 % 0,0 l/m 5,8 km/h (2 Bft) O-SO 112 9,8 C 22,1 C 8,4 km/h (2 Bft)
29.05.2012 16:55 19,3 C 57 % 0,0 l/m 5,3 km/h (1 Bft) S 180 10,6 C 22,3 C 5,1 km/h (1 Bft)
29.05.2012 17:00 19,4 C 55 % 0,0 l/m 4,3 km/h (1 Bft) O-SO 112 10,1 C 23,0 C 8,0 km/h (2 Bft)
29.05.2012 17:05 19,3 C 56 % 0,0 l/m 4,3 km/h (1 Bft) NO 45 10,3 C 23,0 C 4,0 km/h (1 Bft)
29.05.2012 17:10 19,3 C 56 % 0,0 l/m 4,3 km/h (1 Bft) SO 135 10,3 C 23,5 C 4,3 km/h (1 Bft)
29.05.2012 17:15 19,3 C 55 % 0,0 l/m 3,7 km/h (1 Bft) S 180 10,0 C 23,6 C 6,1 km/h (2 Bft)
29.05.2012 17:20 19,2 C 55 % 0,0 l/m 3,2 km/h (1 Bft) N-NO 22 9,9 C 23,9 C 3,5 km/h (1 Bft)
29.05.2012 17:25 19,4 C 54 % 0,0 l/m 3,5 km/h (1 Bft) S 180 9,8 C 24,2 C 2,9 km/h (1 Bft)
29.05.2012 17:30 19,3 C 54 % 0,0 l/m 4,2 km/h (1 Bft) S 180 9,8 C 24,3 C 6,9 km/h (2 Bft)
29.05.2012 17:35 19,2 C 52 % 0,0 l/m 4,2 km/h (1 Bft) SO 135 9,1 C 24,1 C 6,0 km/h (2 Bft)
29.05.2012 17:40 19,3 C 54 % 0,0 l/m 4,8 km/h (1 Bft) N 360 9,8 C 23,9 C 7,7 km/h (2 Bft)
29.05.2012 17:45 19,3 C 53 % 0,0 l/m 5,8 km/h (2 Bft) SO 135 9,5 C 23,7 C 8,7 km/h (2 Bft)
29.05.2012 17:50 19,4 C 52 % 0,0 l/m 6,4 km/h (2 Bft) O 90 9,3 C 23,3 C 7,1 km/h (2 Bft)
29.05.2012 17:55 19,4 C 54 % 0,0 l/m 5,1 km/h (1 Bft) O 90 9,8 C 23,5 C 3,9 km/h (1 Bft)
29.05.2012 18:00 19,3 C 54 % 0,0 l/m 5,0 km/h (1 Bft) O-SO 112 9,8 C 23,8 C 8,5 km/h (2 Bft)
29.05.2012 18:05 19,2 C 53 % 0,0 l/m 4,8 km/h (1 Bft) S-SO 157 9,4 C 23,3 C 3,4 km/h (1 Bft)
29.05.2012 18:10 19,4 C 52 % 0,0 l/m 5,3 km/h (1 Bft) O 90 9,3 C 23,3 C 5,3 km/h (1 Bft)
29.05.2012 18:15 19,5 C 53 % 0,0 l/m 4,5 km/h (1 Bft) SO 135 9,7 C 23,4 C 7,6 km/h (2 Bft)
29.05.2012 18:20 19,6 C 51 % 0,0 l/m 4,3 km/h (1 Bft) O-SO 112 9,2 C 23,5 C 10,0 km/h (2 Bft)
29.05.2012 18:25 19,8 C 53 % 0,0 l/m 5,1 km/h (1 Bft) O-NO 67 9,9 C 23,5 C 12,2 km/h (2 Bft)
29.05.2012 18:30 19,7 C 52 % 0,0 l/m 4,5 km/h (1 Bft) S 180 9,6 C 23,8 C 6,1 km/h (2 Bft)
29.05.2012 18:35 19,8 C 53 % 0,0 l/m 4,7 km/h (1 Bft) SO 135 9,9 C 23,8 C 5,1 km/h (1 Bft)
29.05.2012 18:40 19,8 C 51 % 0,0 l/m 5,5 km/h (1 Bft) NO 45 9,4 C 23,7 C 4,7 km/h (1 Bft)
29.05.2012 18:45 19,8 C 51 % 0,0 l/m 5,1 km/h (1 Bft) SO 135 9,4 C 23,7 C 6,8 km/h (2 Bft)
29.05.2012 18:50 19,6 C 50 % 0,0 l/m 3,7 km/h (1 Bft) SO 135 8,9 C 24,0 C 9,2 km/h (2 Bft)
29.05.2012 18:55 19,6 C 50 % 0,0 l/m 4,3 km/h (1 Bft) O-SO 112 8,9 C 23,8 C 12,9 km/h (3 Bft)
29.05.2012 19:00 19,2 C 51 % 0,0 l/m 5,6 km/h (1 Bft) O-SO 112 8,8 C 23,2 C 3,1 km/h (1 Bft)
29.05.2012 19:05 19,1 C 52 % 0,0 l/m 5,1 km/h (1 Bft) O 90 9,0 C 23,1 C 6,8 km/h (2 Bft)
29.05.2012 19:10 18,5 C 53 % 0,0 l/m 5,0 km/h (1 Bft) O-SO 112 8,7 C 22,4 C 4,0 km/h (1 Bft)
29.05.2012 19:15 18,0 C 55 % 0,0 l/m 5,1 km/h (1 Bft) NW 315 8,8 C 21,2 C 3,9 km/h (1 Bft)
29.05.2012 19:20 17,5 C 56 % 0,0 l/m 2,9 km/h (1 Bft) NO 45 8,6 C 20,2 C 0,0 km/h (0 Bft)
29.05.2012 19:25 17,6 C 57 % 0,0 l/m 1,0 km/h (0 Bft) W-NW 292 9,0 C 20,2 C 0,0 km/h (0 Bft)
29.05.2012 19:30 18,0 C 56 % 0,0 l/m 0,5 km/h (0 Bft) O-SO 112 9,1 C 21,4 C 2,4 km/h (1 Bft)
29.05.2012 19:35 18,2 C 57 % 0,0 l/m 1,3 km/h (1 Bft) O-SO 112 9,5 C 21,8 C 3,2 km/h (1 Bft)
29.05.2012 19:40 18,2 C 56 % 0,0 l/m 1,9 km/h (1 Bft) O 90 9,3 C 22,0 C 2,9 km/h (1 Bft)
29.05.2012 19:45 17,8 C 56 % 0,0 l/m 2,3 km/h (1 Bft) O 90 8,9 C 21,3 C 6,1 km/h (2 Bft)
29.05.2012 19:50 17,6 C 56 % 0,0 l/m 2,1 km/h (1 Bft) SO 135 8,7 C 20,7 C 0,0 km/h (0 Bft)
29.05.2012 19:55 17,2 C 57 % 0,0 l/m 1,9 km/h (1 Bft) O-SO 112 8,6 C 20,6 C 3,4 km/h (1 Bft)
29.05.2012 20:00 16,6 C 57 % 0,0 l/m 1,0 km/h (0 Bft) NO 45 8,0 C 19,2 C 2,9 km/h (1 Bft)
29.05.2012 20:05 16,2 C 58 % 0,0 l/m 0,6 km/h (0 Bft) NO 45 7,9 C 18,4 C 0,0 km/h (0 Bft)
29.05.2012 20:10 15,9 C 59 % 0,0 l/m 0,5 km/h (0 Bft) NO 45 7,9 C 17,4 C 0,0 km/h (0 Bft)
29.05.2012 20:15 15,9 C 59 % 0,0 l/m 0,5 km/h (0 Bft) N 360 7,9 C 17,0 C 0,0 km/h (0 Bft)
29.05.2012 20:20 15,6 C 59 % 0,0 l/m 0,2 km/h (0 Bft) N-NW 337 7,6 C 17,3 C 0,0 km/h (0 Bft)
29.05.2012 20:25 15,3 C 60 % 0,0 l/m 0,0 km/h (0 Bft) SO 135 7,6 C 17,2 C 0,0 km/h (0 Bft)
29.05.2012 20:30 15,3 C 61 % 0,0 l/m 0,0 km/h (0 Bft) N 360 7,8 C 17,2 C 0,0 km/h (0 Bft)
29.05.2012 20:35 15,2 C 61 % 0,0 l/m 0,0 km/h (0 Bft) NO 45 7,7 C 17,3 C 0,0 km/h (0 Bft)
29.05.2012 20:40 15,1 C 61 % 0,0 l/m 0,2 km/h (0 Bft) N-NO 22 7,6 C 17,5 C 0,0 km/h (0 Bft)
29.05.2012 20:45 15,1 C 62 % 0,0 l/m 0,3 km/h (0 Bft) W-SW 247 7,9 C 17,4 C 0,0 km/h (0 Bft)
29.05.2012 20:50 14,8 C 62 % 0,0 l/m 0,2 km/h (0 Bft) O-SO 112 7,6 C 17,2 C 0,0 km/h (0 Bft)
29.05.2012 20:55 14,6 C 63 % 0,0 l/m 0,0 km/h (0 Bft) S-SO 157 7,6 C 16,8 C 0,0 km/h (0 Bft)
29.05.2012 21:00 14,4 C 64 % 0,0 l/m 0,2 km/h (0 Bft) N-NO 22 7,7 C 15,9 C 0,0 km/h (0 Bft)
29.05.2012 21:05 14,3 C 65 % 0,0 l/m 0,5 km/h (0 Bft) N-NO 22 7,8 C 15,3 C 2,7 km/h (1 Bft)
29.05.2012 21:10 14,2 C 65 % 0,0 l/m 0,6 km/h (0 Bft) N-NO 22 7,7 C 14,8 C 0,0 km/h (0 Bft)
29.05.2012 21:15 14,0 C 66 % 0,0 l/m 0,5 km/h (0 Bft) N-NO 22 7,7 C 14,4 C 0,0 km/h (0 Bft)
29.05.2012 21:20 13,5 C 67 % 0,0 l/m 0,2 km/h (0 Bft) N-NO 22 7,5 C 13,9 C 0,0 km/h (0 Bft)
29.05.2012 21:25 13,0 C 68 % 0,0 l/m 0,2 km/h (0 Bft) N-NW 337 7,2 C 13,5 C 0,0 km/h (0 Bft)
29.05.2012 21:30 12,7 C 73 % 0,0 l/m 0,0 km/h (0 Bft) N-NW 337 8,0 C 13,0 C 0,0 km/h (0 Bft)
29.05.2012 21:35 12,7 C 74 % 0,0 l/m 0,2 km/h (0 Bft) N-NW 337 8,2 C 12,8 C 2,3 km/h (1 Bft)
29.05.2012 21:40 12,8 C 74 % 0,0 l/m 0,8 km/h (0 Bft) N-NW 337 8,3 C 12,7 C 1,6 km/h (1 Bft)
29.05.2012 21:45 12,4 C 73 % 0,0 l/m 0,8 km/h (0 Bft) N-NW 337 7,7 C 12,5 C 0,0 km/h (0 Bft)
29.05.2012 21:50 12,9 C 72 % 0,0 l/m 1,0 km/h (0 Bft) N-NO 22 8,0 C 12,3 C 0,0 km/h (0 Bft)
29.05.2012 21:55 12,9 C 73 % 0,0 l/m 1,0 km/h (0 Bft) NO 45 8,2 C 12,5 C 0,0 km/h (0 Bft)
29.05.2012 22:00 12,3 C 74 % 0,0 l/m 0,6 km/h (0 Bft) NO 45 7,8 C 12,3 C 0,0 km/h (0 Bft)
29.05.2012 22:05 12,1 C 75 % 0,0 l/m 1,0 km/h (0 Bft) N-NO 22 7,8 C 12,1 C 1,8 km/h (1 Bft)
29.05.2012 22:10 11,8 C 75 % 0,0 l/m 0,6 km/h (0 Bft) SO 135 7,5 C 11,8 C 0,0 km/h (0 Bft)
29.05.2012 22:15 11,2 C 75 % 0,0 l/m 0,2 km/h (0 Bft) O 90 6,9 C 11,4 C 0,0 km/h (0 Bft)
29.05.2012 22:20 10,9 C 76 % 0,0 l/m 0,0 km/h (0 Bft) S-SO 157 6,8 C 10,8 C 0,0 km/h (0 Bft)
29.05.2012 22:25 10,6 C 78 % 0,0 l/m 0,0 km/h (0 Bft) N 360 6,9 C 10,5 C 3,7 km/h (1 Bft)
29.05.2012 22:30 10,5 C 79 % 0,0 l/m 0,2 km/h (0 Bft) NO 45 7,0 C 10,2 C 0,0 km/h (0 Bft)
29.05.2012 22:35 10,4 C 79 % 0,0 l/m 0,5 km/h (0 Bft) N-NO 22 6,9 C 10,2 C 0,0 km/h (0 Bft)
29.05.2012 22:40 10,5 C 80 % 0,0 l/m 1,1 km/h (1 Bft) N-NO 22 7,2 C 10,2 C 0,0 km/h (0 Bft)
29.05.2012 22:45 10,6 C 80 % 0,0 l/m 1,3 km/h (1 Bft) O-SO 112 7,3 C 10,2 C 3,1 km/h (1 Bft)
29.05.2012 22:50 10,8 C 79 % 0,0 l/m 1,0 km/h (0 Bft) N-NW 337 7,3 C 10,3 C 2,1 km/h (1 Bft)
29.05.2012 22:55 10,6 C 79 % 0,0 l/m 1,1 km/h (1 Bft) O-SO 112 7,1 C 10,5 C 1,9 km/h (1 Bft)
29.05.2012 23:00 11,1 C 80 % 0,0 l/m 1,6 km/h (1 Bft) N 360 7,8 C 10,8 C 4,2 km/h (1 Bft)
29.05.2012 23:05 10,7 C 79 % 0,0 l/m 1,3 km/h (1 Bft) SO 135 7,2 C 10,9 C 0,0 km/h (0 Bft)
29.05.2012 23:10 10,5 C 78 % 0,0 l/m 0,5 km/h (0 Bft) NO 45 6,8 C 10,7 C 0,0 km/h (0 Bft)
29.05.2012 23:15 10,5 C 79 % 0,0 l/m 0,2 km/h (0 Bft) S 180 7,0 C 10,6 C 0,0 km/h (0 Bft)
29.05.2012 23:20 10,4 C 78 % 0,0 l/m 0,2 km/h (0 Bft) N-NO 22 6,7 C 10,5 C 0,0 km/h (0 Bft)
29.05.2012 23:25 10,6 C 79 % 0,0 l/m 0,5 km/h (0 Bft) NO 45 7,1 C 10,4 C 1,8 km/h (1 Bft)
29.05.2012 23:30 10,6 C 78 % 0,0 l/m 1,1 km/h (1 Bft) S-SO 157 6,9 C 10,6 C 0,0 km/h (0 Bft)
29.05.2012 23:35 10,4 C 78 % 0,0 l/m 1,1 km/h (1 Bft) S 180 6,7 C 10,6 C 0,0 km/h (0 Bft)
29.05.2012 23:40 10,3 C 78 % 0,0 l/m 0,5 km/h (0 Bft) NO 45 6,6 C 10,4 C 0,0 km/h (0 Bft)
29.05.2012 23:45 10,2 C 78 % 0,0 l/m 0,2 km/h (0 Bft) S-SW 202 6,5 C 10,4 C 0,0 km/h (0 Bft)
29.05.2012 23:50 10,1 C 78 % 0,0 l/m 0,0 km/h (0 Bft) O-SO 112 6,4 C 10,2 C 1,9 km/h (1 Bft)
29.05.2012 23:55 10,2 C 78 % 0,0 l/m 0,2 km/h (0 Bft) NO 45 6,5 C 10,2 C 0,0 km/h (0 Bft)
_ Min-Zeit 03:10 12:40 - 23:50 - - 23:50 23:55 23:55
Minimum _ 10,0 C 44 % - 0,0 km/h (0 Bft) - - 6,4 C 10,2 C 0,0 km/h (0 Bft)
_ Max-Zeit 12:20 08:20 13:20 14:55 - - 09:25 17:30 12:20
Maximum _ 23,1 C 93 % 1,4 l/m 11,3 km/h
SO (2 Bft)
- - 14,6 C 24,3 C 24,1 km/h
O (4 Bft)
Durchschnitt _ 14,9 C 74 % #6,9 l/m 3,2 km/h (1 Bft) SO - 9,8 C 15,9 C 4,6 km/h (1 Bft)